Location: Brusselsch Zeekanaal
(50.8667°N, 4.3667°E)
Time: 06:10:29
(UTC+00:00)

Timation 2 Rocket - Pass Details

Date: 08 November 2025
Orbit: 904 x 1074 km, 70.0° (Epoch: 11 December)

Event Time Altitude Azimuth Distance (km) Brightness Sun altitude
Exits shadow 04:14:48 22° 328° (NNW) 2,110 5.5 -24.1°
Maximum altitude 04:19:26 89° 238° (WSW) 1,027 4.0 -23.3°
Drops below altitude 10° 04:25:52 10° 151° (SSE) 2,740 6.7 -22.3°
Sets 04:28:21 0° 151° (SSE) 3,660 7.4 -21.9°
